K1FFK-1 Weather Reports


Display with metric or nautical units.
time (UTC)temp
F
wind
direction
speed
MPH
gust
MPH
rain 1hr
in
rain 24hr
in
rain mn
in
humidity
%
barometer
mb
20260510164134 47 344 5.0 5.0 0.00 0.00 0.00 98 1014.7
20260510163137 48 327 4.0 4.0 0.00 0.00 0.00 98 1014.8
20260510162133 49 324 5.0 5.0 0.00 0.00 0.00 94 1014.9
20260510161134 48 316 4.0 4.0 0.00 0.00 0.00 95 1014.8
20260510160135 49 316 4.0 4.0 0.00 0.00 0.00 95 1014.7
20260510155133 50 282 3.0 3.0 0.00 0.00 0.00 92 1014.8
20260510154134 49 310 2.0 2.0 0.00 0.00 0.00 96 1014.8
20260510153134 48 220 1.0 1.0 0.00 0.00 0.00 97 1014.7
20260510152133 48 329 1.0 1.0 0.00 0.00 0.00 97 1014.7
20260510151133 48 316 4.0 4.0 0.00 0.00 0.00 96 1014.6
20260510150135 48 319 2.0 2.0 0.00 0.00 0.00 97 1014.6
20260510145133 48 336 1.0 1.0 0.00 0.00 0.00 98 1014.5
20260510144134 48 268 1.0 1.0 0.00 0.00 0.00 99 1014.4
20260510143135 48 306 3.0 3.0 0.00 0.00 0.00 97 1014.2
20260510142133 47 208 2.0 2.0 0.00 0.00 0.00 100 1014.0
20260510141135 46 271 1.0 1.0 0.00 0.00 0.00 99 1014.0
20260510140135 46 222 2.0 2.0 0.00 0.00 0.00 99 1014.0
20260510135133 45 153 2.0 2.0 0.00 0.00 0.00 99 1013.9
20260510134133 45 198 3.0 3.0 0.00 0.00 0.00 99 1013.8
20260510133133 45 196 3.0 3.0 0.00 0.00 0.00 99 1013.8
20260510132133 45 177 1.0 1.0 0.00 0.00 0.00 99 1013.8
20260510131134 45 203 2.0 2.0 0.00 0.00 0.00 99 1013.9
20260510130134 46 199 2.0 2.0 0.00 0.00 0.00 100 1013.8
20260510125133 46 268 2.0 2.0 0.00 0.00 0.00 100 1013.8
20260510124134 45 194 1.0 1.0 0.00 0.00 0.00 100 1013.6
20260510123138 45 201 2.0 2.0 0.00 0.00 0.00 99 1013.6
20260510122133 44 208 4.0 4.0 0.00 0.00 0.00 99 1013.6
20260510121134 43 220 2.0 2.0 0.00 0.00 0.00 99 1013.5
20260510120134 43 196 2.0 2.0 0.00 0.00 0.00 99 1013.4
20260510115134 43 181 1.0 1.0 0.00 0.00 0.00 99 1013.3
20260510114134 43 180 3.0 3.0 0.00 0.00 0.00 98 1013.3
20260510113134 42 170 1.0 1.0 0.00 0.00 0.00 98 1013.4
20260510112133 42 156 2.0 2.0 0.00 0.00 0.00 98 1013.3
20260510111134 42 188 2.0 2.0 0.00 0.00 0.00 98 1013.2
20260510110133 42 268 2.0 2.0 0.00 0.00 0.00 98 1013.1
20260510105134 42 258 2.0 2.0 0.00 0.00 0.00 98 1013.0
20260510104133 42 40 1.0 1.0 0.00 0.00 0.00 98 1012.8
20260510103134 42 344 2.0 2.0 0.00 0.00 0.00 98 1012.6
20260510102134 42 262 2.0 2.0 0.00 0.00 0.00 98 1012.4
20260510101134 41 272 2.0 2.0 0.00 0.00 0.00 98 1012.4
20260510100133 41 4 1.0 1.0 0.00 0.00 0.00 98 1012.1
20260510095134 41 281 3.0 3.0 0.00 0.00 0.00 98 1012.2
20260510094134 41 177 2.0 2.0 0.00 0.00 0.00 98 1012.1
20260510093134 41 261 1.0 1.0 0.00 0.00 0.00 98 1011.9
20260510092133 41 91 2.0 2.0 0.00 0.00 0.00 98 1011.8
20260510091134 41 281 1.0 1.0 0.00 0.00 0.00 98 1011.7
20260510090133 41 347 2.0 2.0 0.00 0.00 0.00 98 1011.7
20260510085533 41 323 1.0 1.0 0.00 0.00 0.00 98 1011.6
20260510085133 41 323 1.0 1.0 0.00 0.00 0.00 98 1011.6
20260510084133 41 312 1.0 1.0 0.00 0.00 0.00 98 1011.7
20260510083133 42 279 1.0 1.0 0.00 0.00 0.00 98 1011.8
20260510082133 42 330 2.0 2.0 0.00 0.00 0.00 98 1011.7
20260510081134 42 309 5.0 5.0 0.00 0.00 0.00 98 1012.0
20260510080134 42 288 4.0 4.0 0.00 0.00 0.00 98 1012.1
20260510075134 42 286 3.0 3.0 0.00 0.00 0.00 98 1012.3
20260510074133 43 292 5.0 5.0 0.00 0.00 0.00 98 1012.2
20260510073134 43 316 3.0 3.0 0.00 0.00 0.00 98 1012.3
20260510072134 43 296 4.0 4.0 0.00 0.00 0.00 98 1012.2
20260510071134 43 303 4.0 4.0 0.00 0.00 0.00 98 1012.1
20260510070133 43 286 5.0 5.0 0.00 0.00 0.00 98 1012.0
20260510065134 43 292 3.0 3.0 0.00 0.00 0.00 98 1012.1
20260510064134 42 225 3.0 3.0 0.00 0.00 0.00 98 1011.8
20260510063134 42 250 4.0 4.0 0.00 0.00 0.00 98 1011.8
20260510062134 42 209 3.0 3.0 0.00 0.00 0.00 98 1011.8
20260510061243 42 191 3.0 3.0 0.00 0.00 0.00 98 1011.9
20260510061133 42 191 3.0 3.0 0.00 0.00 0.00 98 1011.9
20260510060133 42 209 3.0 3.0 0.00 0.00 0.00 98 1011.9
20260510055134 42 164 4.0 4.0 0.00 0.00 0.00 98 1012.0
20260510054134 41 191 3.0 3.0 0.00 0.00 0.00 98 1012.1
20260510053133 41 175 5.0 5.0 0.00 0.00 0.00 98 1012.0
20260510052134 41 172 3.0 3.0 0.00 0.00 0.00 98 1011.9
20260510051133 41 177 4.0 4.0 0.00 0.00 0.00 98 1012.0
20260510050134 41 170 5.0 5.0 0.00 0.00 0.00 98 1012.1
20260510045134 41 180 4.0 4.0 0.00 0.00 0.00 98 1012.1
20260510044134 41 182 4.0 4.0 0.00 0.00 0.00 98 1012.0
20260510043133 41 188 3.0 3.0 0.00 0.00 0.00 98 1012.1
20260510042133 41 185 3.0 3.0 0.00 0.00 0.00 98 1012.2
20260510041135 41 208 3.0 3.0 0.00 0.00 0.00 98 1012.2
20260510040133 41 192 3.0 3.0 0.00 0.00 0.00 98 1012.1
20260510035134 41 199 2.0 2.0 0.00 0.00 0.00 98 1012.1
20260510034134 41 189 3.0 3.0 0.00 0.00 0.00 98 1012.1
20260510033133 41 187 2.0 2.0 0.00 0.00 0.00 98 1012.1
20260510032133 41 184 2.0 2.0 0.00 0.00 0.00 98 1012.3
20260510031134 41 208 1.0 1.0 0.00 0.00 0.00 98 1012.1
20260510030135 41 203 2.0 2.0 0.00 0.00 0.00 98 1012.1
20260510025133 41 191 2.0 2.0 0.00 0.00 0.00 98 1012.1
20260510024134 41 191 2.0 2.0 0.00 0.00 0.00 98 1012.1
20260510023133 41 185 5.0 5.0 0.00 0.00 0.00 98 1012.0
20260510022133 41 188 4.0 4.0 0.00 0.00 0.00 98 1012.0
20260510021133 41 167 6.0 6.0 0.00 0.00 0.00 98 1011.9
20260510020133 41 168 6.0 6.0 0.00 0.00 0.00 98 1012.0
20260510015133 41 172 6.0 6.0 0.00 0.00 0.00 98 1012.2
20260510014134 41 180 5.0 5.0 0.00 0.00 0.00 98 1012.2
20260510013134 41 177 5.0 5.0 0.00 0.00 0.00 98 1012.2
20260510012133 41 175 5.0 5.0 0.00 0.00 0.00 98 1012.2
20260510011134 41 172 5.0 5.0 0.00 0.00 0.00 98 1012.1
20260510010133 41 194 3.0 3.0 0.00 0.00 0.00 98 1012.0
20260510005133 41 180 5.0 5.0 0.00 0.00 0.00 98 1011.9
20260510004133 41 181 4.0 4.0 0.00 0.00 0.00 98 1011.7
20260510003134 41 187 3.0 3.0 0.00 0.00 0.00 98 1011.7
20260510002134 41 181 4.0 4.0 0.00 0.00 0.00 98 1011.5
20260510001134 41 177 5.0 5.0 0.00 0.00 0.00 98 1011.5
20260510000133 41 180 4.0 4.0 0.00 0.00 0.00 98 1011.4
20260509235133 41 180 4.0 4.0 0.00 0.00 0.00 98 1011.4
20260509234133 41 181 4.0 4.0 0.00 0.00 0.00 98 1011.3
20260509233133 41 172 4.0 4.0 0.00 0.00 0.00 98 1011.3
20260509232133 41 191 4.0 4.0 0.00 0.00 0.00 98 1011.3
20260509231134 41 189 4.0 4.0 0.00 0.00 0.00 98 1011.3
20260509230133 41 177 3.0 3.0 0.00 0.00 0.00 98 1011.4
20260509225133 41 201 3.0 3.0 0.00 0.00 0.00 98 1011.3
20260509224134 41 174 2.0 2.0 0.00 0.00 0.00 98 1011.4
20260509223134 41 191 3.0 3.0 0.00 0.00 0.00 99 1011.3
20260509222134 41 195 3.0 3.0 0.00 0.00 0.00 99 1011.3
20260509221134 41 196 4.0 4.0 0.00 0.00 0.00 99 1011.2
20260509220134 41 192 3.0 3.0 0.00 0.00 0.00 99 1011.2
20260509215133 41 178 3.0 3.0 0.00 0.00 0.00 99 1011.2
20260509214133 40 199 4.0 4.0 0.00 0.00 0.00 99 1011.2
20260509213134 40 205 4.0 4.0 0.00 0.00 0.00 99 1011.4
20260509212133 40 191 5.0 5.0 0.00 0.00 0.00 99 1011.3
20260509211134 40 177 5.0 5.0 0.00 0.00 0.00 99 1011.5
20260509210134 40 184 6.0 6.0 0.00 0.00 0.00 99 1011.6
20260509205134 40 177 4.0 4.0 0.00 0.00 0.00 99 1011.8
20260509204134 41 192 5.0 5.0 0.00 0.00 0.00 99 1011.7
20260509203133 41 192 7.0 7.0 0.00 0.00 0.00 99 1011.8
20260509202134 40 225 4.0 4.0 0.00 0.00 0.00 99 1011.9
20260509201133 40 192 5.0 5.0 0.00 0.00 0.00 99 1012.0
20260509200134 40 189 5.0 5.0 0.00 0.00 0.00 99 1012.0
20260509195134 39 192 4.0 4.0 0.00 0.00 0.00 99 1012.0
20260509194133 39 196 5.0 5.0 0.00 0.00 0.00 99 1012.1
20260509193134 38 194 5.0 5.0 0.00 0.00 0.00 99 1012.0
20260509192134 38 191 5.0 5.0 0.00 0.00 0.00 99 1012.0
20260509191134 38 187 5.0 5.0 0.00 0.00 0.00 99 1012.0
20260509190133 38 201 4.0 4.0 0.00 0.00 0.00 99 1012.1
20260509185134 38 191 4.0 4.0 0.00 0.00 0.00 99 1012.2
20260509184134 38 195 5.0 5.0 0.00 0.00 0.00 99 1012.2
20260509183134 38 185 5.0 5.0 0.00 0.00 0.00 99 1012.2
20260509182133 37 191 5.0 5.0 0.00 0.00 0.00 99 1012.3
20260509181133 37 192 4.0 4.0 0.00 0.00 0.00 99 1012.4
20260509180134 37 191 5.0 5.0 0.00 0.00 0.00 99 1012.4
20260509175133 37 181 5.0 5.0 0.00 0.00 0.00 99 1012.4
20260509174133 37 177 3.0 3.0 0.00 0.00 0.00 99 1012.5
20260509173133 37 181 5.0 5.0 0.00 0.00 0.00 99 1012.5
20260509172133 37 184 5.0 5.0 0.00 0.00 0.00 99 1012.6
20260509171133 37 192 6.0 6.0 0.00 0.00 0.00 99 1012.6
20260509170134 37 194 5.0 5.0 0.00 0.00 0.00 99 1012.7
20260509165134 37 192 5.0 5.0 0.00 0.00 0.00 99 1012.7